Weather History for LGKL - November, 2013

Change the Weather History Date:

Sunday, November 3, 2013

  Actual Average Record
Temperature  
Mean Temperature 64 °F -  
Max Temperature 78 °F 68 °F 78 °F (2000)
Min Temperature 51 °F 50 °F 41 °F (2006)
Growing Degree Days 14 (Base 50)    
Moisture  
Dew Point 54 °F    
Average Humidity 74    
Maximum Humidity 94    
Minimum Humidity 34    
Precipitation  
Precipitation 0.00 in 0.19 in - ()
Sea Level Pressure  
Sea Level Pressure 30.08 in    
Wind  
Wind Speed 4 mph ()    
Max Wind Speed 13 mph    
Max Gust Speed -    
Visibility 6.2 miles    
Events Rain    
Averages and records for this station are not official NWS values.
T = Trace of Precipitation, MM = Missing Value Source: Averaged Metar Reports

Daily Weather History Graph

Daily Weather History Graph

Search for Another Location

Airport or City:

Trip Planner

Search our weather history database for the weather conditions in past years. The results will help you decide how hot, cold, wet, or windy it might be!

Date:

Astronomy

Nov. 03, 2013 Rise Set
Actual Time 6:58 AM EET 5:32 PM EET
Civil Twilight 6:31 AM EET 5:59 PM EET
Nautical Twilight 6:00 AM EET 6:30 PM EET
Astronomical Twilight 5:29 AM EET 7:00 PM EET
Moon 6:41 AM EET (11/3) 5:33 PM EET (11/3)
Length of Visible Light 11h 28m
Length of Day
10h 34m
Waning Crescent, 0% of the Moon is Illuminated
Nov 3
Waning Crescent
Nov 3
New
Nov 10
First Quarter
Nov 17
Full
Nov 25
Last Quarter

Hourly Weather History & Observations

Time (EET) Temp. Dew Point Humidity Pressure Visibility Wind Dir Wind Speed Gust Speed Precip Events Conditions
12:20 AM 55.4 °F 53.6 °F 94% 30.12 in - WNW 4.6 mph - N/A   Unknown
12:50 AM 55.4 °F 51.8 °F 88% 30.12 in - Variable 1.2 mph - N/A   Unknown
1:20 AM 53.6 °F 51.8 °F 94% 30.12 in - Variable 3.5 mph - N/A Rain Light Rain
1:50 AM 55.4 °F 51.8 °F 88% 30.12 in - Variable 3.5 mph - N/A   Unknown
2:20 AM 53.6 °F 51.8 °F 94% 30.12 in - NW 4.6 mph - N/A Rain Light Rain
2:50 AM 53.6 °F 51.8 °F 94% 30.12 in - Variable 3.5 mph - N/A   Unknown
3:20 AM 53.6 °F 51.8 °F 94% 30.12 in - Variable 3.5 mph - N/A   Unknown
3:50 AM 53.6 °F 50.0 °F 88% 30.09 in - Variable 3.5 mph - N/A   Unknown
4:20 AM 51.8 °F 50.0 °F 94% 30.09 in - Variable 2.3 mph - N/A   Unknown
4:50 AM 51.8 °F 50.0 °F 94% 30.09 in - Variable 2.3 mph - N/A Rain Light Rain
5:20 AM 51.8 °F 50.0 °F 94% 30.09 in 6.2 mi Calm Calm - N/A   Partly Cloudy
5:50 AM 53.6 °F 50.0 °F 88% 30.09 in 6.2 mi NNW 6.9 mph - N/A   Partly Cloudy
6:20 AM 51.8 °F 50.0 °F 94% 30.09 in 6.2 mi NNW 6.9 mph - N/A   Partly Cloudy
6:50 AM 51.8 °F 50.0 °F 94% 30.09 in - NNW 5.8 mph - N/A   Clear
7:20 AM 51.8 °F 48.2 °F 88% 30.09 in - NNW 6.9 mph - N/A   Clear
7:50 AM 53.6 °F 50.0 °F 88% 30.09 in - NNW 6.9 mph - N/A   Clear
8:20 AM 57.2 °F 51.8 °F 82% 30.09 in - NW 4.6 mph - N/A   Clear
8:50 AM 60.8 °F 53.6 °F 77% 30.09 in - WNW 4.6 mph - N/A   Clear
9:20 AM 64.4 °F 55.4 °F 73% 30.09 in - Calm Calm - N/A   Clear
9:50 AM 68.0 °F 55.4 °F 64% 30.09 in - North 5.8 mph - N/A   Clear
10:20 AM 71.6 °F 55.4 °F 57% 30.09 in 6.2 mi North 4.6 mph - N/A   Partly Cloudy
10:50 AM 73.4 °F 53.6 °F 50% 30.09 in 6.2 mi West 4.6 mph - N/A   Partly Cloudy
11:20 AM 75.2 °F 53.6 °F 47% 30.09 in 6.2 mi NNE 4.6 mph - N/A   Partly Cloudy
11:50 AM 77.0 °F 53.6 °F 44% 30.09 in 6.2 mi NW 4.6 mph - N/A   Partly Cloudy
12:20 PM 77.0 °F 51.8 °F 41% 30.06 in 6.2 mi WNW 5.8 mph - N/A   Partly Cloudy
12:50 PM 77.0 °F 57.2 °F 50% 30.06 in 6.2 mi Calm Calm - N/A   Partly Cloudy
1:20 PM 77.0 °F 57.2 °F 50% 30.06 in 6.2 mi Calm Calm - N/A   Partly Cloudy
1:50 PM 78.8 °F 48.2 °F 34% 30.06 in 6.2 mi West 4.6 mph - N/A   Partly Cloudy
2:20 PM 78.8 °F 48.2 °F 34% 30.04 in 6.2 mi WSW 6.9 mph - N/A   Partly Cloudy
2:50 PM 78.8 °F 48.2 °F 34% 30.04 in 6.2 mi NNW 5.8 mph - N/A   Partly Cloudy
3:20 PM 77.0 °F 51.8 °F 41% 30.04 in 6.2 mi NNW 6.9 mph - N/A   Partly Cloudy
3:50 PM 75.2 °F 55.4 °F 50% 30.04 in 6.2 mi NNW 9.2 mph - N/A   Partly Cloudy
4:20 PM 75.2 °F 55.4 °F 50% 30.04 in 6.2 mi NNE 9.2 mph - N/A   Partly Cloudy
4:50 PM 71.6 °F 57.2 °F 60% 30.04 in 6.2 mi North 12.7 mph - N/A   Partly Cloudy
5:20 PM 69.8 °F 57.2 °F 64% 30.04 in 6.2 mi North 8.1 mph - N/A   Partly Cloudy
5:50 PM 69.8 °F 59.0 °F 68% 30.04 in 6.2 mi North 9.2 mph - N/A   Partly Cloudy
6:20 PM 68.0 °F 59.0 °F 73% 30.04 in 6.2 mi Calm Calm - N/A   Partly Cloudy
6:50 PM 68.0 °F 59.0 °F 73% 30.06 in 6.2 mi North 6.9 mph - N/A   Partly Cloudy
7:20 PM 66.2 °F 59.0 °F 78% 30.06 in 6.2 mi Calm Calm - N/A   Partly Cloudy
7:50 PM 62.6 °F 57.2 °F 82% 30.06 in 6.2 mi NW 4.6 mph - N/A   Partly Cloudy
8:20 PM 62.6 °F 57.2 °F 82% 30.06 in - Variable 3.5 mph - N/A   Unknown
8:50 PM 60.8 °F 57.2 °F 88% 30.06 in - Variable 3.5 mph - N/A   Unknown
9:20 PM 60.8 °F 55.4 °F 82% 30.09 in - NW 4.6 mph - N/A   Unknown
9:50 PM 59.0 °F 55.4 °F 88% 30.09 in - Variable 3.5 mph - N/A Rain Light Rain
10:20 PM 59.0 °F 57.2 °F 94% 30.09 in - Variable 3.5 mph - N/A   Unknown
10:50 PM 59.0 °F 57.2 °F 94% 30.09 in - NW 4.6 mph - N/A   Unknown
11:20 PM 59.0 °F 57.2 °F 94% 30.09 in - NW 4.6 mph - N/A Rain Light Rain
11:50 PM 59.0 °F 55.4 °F 88% 30.09 in - Variable 2.3 mph - N/A   Unknown